QPF
0.00 0.00 0.00 0.01 0.01 0.02 0.03 0.03 0.05 0.08 0.10 0.08 0.06 0.05 0.06 0.04 0.01 0.01 0.01 0.02 0.06 0.11 0.12 0.10 0.07 0.06 0.06 0.07 0.05 0.06 0.07 0.06 0.04 0.03 0.02 0.03 0.05 0.04 0.03 0.03 0.03 0.03 0.05
0.00 0.00 0.00 0.01 0.01 0.01 0.02 0.03 0.05 0.07 0.08 0.07 0.06 0.04 0.05 0.04 0.02 0.01 0.01 0.02 0.04 0.07 0.11 0.10 0.08 0.07 0.07 0.06 0.06 0.05 0.07 0.05 0.04 0.03 0.04 0.03 0.03 0.04 0.03 0.02 0.03 0.03 0.04
0.00 0.00 0.00 0.01 0.01 0.01 0.01 0.02 0.05 0.06 0.06 0.07 0.06 0.04 0.04 0.04 0.05 0.04 0.02 0.02 0.04 0.05 0.09 0.10 0.09 0.08 0.08 0.06 0.06 0.06 0.05 0.05 0.05 0.05 0.04 0.03 0.03 0.04 0.04 0.02 0.03 0.04 0.04
0.00 0.00 0.00 0.00 0.00 0.00 0.01 0.03 0.07 0.07 0.06 0.07 0.07 0.05 0.04 0.05 0.08 0.07 0.04 0.04 0.05 0.05 0.07 0.09 0.08 0.08 0.09 0.08 0.07 0.06 0.05 0.04 0.04 0.05 0.06 0.04 0.03 0.04 0.04 0.03 0.03 0.04 0.03
0.00 0.00 0.00 0.00 0.00 0.00 0.01 0.02 0.05 0.06 0.07 0.09 0.08 0.07 0.05 0.06 0.09 0.08 0.08 0.06 0.04 0.05 0.06 0.08 0.08 0.08 0.09 0.10 0.09 0.08 0.06 0.04 0.04 0.06 0.07 0.06 0.04 0.04 0.03 0.02 0.02 0.02 0.02
0.00 0.00 0.00 0.00 0.00 0.01 0.01 0.01 0.02 0.04 0.05 0.09 0.11 0.10 0.08 0.08 0.10 0.09 0.09 0.09 0.08 0.06 0.07 0.07 0.07 0.05 0.06 0.09 0.11 0.10 0.08 0.06 0.04 0.04 0.06 0.06 0.05 0.05 0.04 0.02 0.02 0.02 0.01
0.00 0.00 0.00 0.00 0.00 0.00 0.01 0.02 0.02 0.03 0.04 0.06 0.07 0.08 0.09 0.09 0.09 0.08 0.08 0.09 0.09 0.08 0.07 0.06 0.06 0.05 0.04 0.05 0.07 0.09 0.10 0.09 0.08 0.06 0.06 0.07 0.08 0.06 0.05 0.04 0.03 0.02 0.01
0.00 0.00 0.00 0.00 0.00 0.00 0.00 0.01 0.02 0.02 0.03 0.04 0.05 0.06 0.08 0.09 0.07 0.07 0.07 0.07 0.08 0.08 0.07 0.06 0.06 0.06 0.06 0.05 0.03 0.06 0.08 0.10 0.11 0.09 0.07 0.08 0.09 0.07 0.05 0.05 0.03 0.02 0.02
0.00 0.00 0.00 0.00 0.00 0.00 0.00 0.01 0.02 0.02 0.03 0.03 0.04 0.05 0.06 0.09 0.08 0.07 0.06 0.07 0.08 0.09 0.08 0.07 0.08 0.06 0.07 0.08 0.06 0.06 0.06 0.06 0.10 0.09 0.08 0.08 0.09 0.08 0.07 0.06 0.05 0.03 0.03
0.00 0.00 0.00 0.00 0.00 0.00 0.01 0.01 0.02 0.01 0.01 0.02 0.03 0.04 0.05 0.06 0.09 0.08 0.07 0.07 0.08 0.09 0.09 0.08 0.08 0.09 0.10 0.09 0.09 0.07 0.06 0.06 0.08 0.10 0.09 0.09 0.09 0.08 0.08 0.07 0.06 0.05 0.04
0.01 0.01 0.00 0.00 0.00 0.01 0.01 0.01 0.01 0.02 0.02 0.02 0.03 0.04 0.05 0.05 0.05 0.07 0.08 0.07 0.07 0.06 0.08 0.09 0.09 0.09 0.09 0.10 0.09 0.10 0.08 0.07 0.08 0.10 0.10 0.10 0.10 0.09 0.09 0.09 0.07 0.04 0.03
0.01 0.01 0.01 0.01 0.02 0.02 0.02 0.02 0.02 0.02 0.02 0.02 0.02 0.04 0.06 0.06 0.05 0.05 0.06 0.06 0.06 0.05 0.06 0.08 0.08 0.07 0.08 0.08 0.07 0.08 0.08 0.07 0.06 0.08 0.09 0.10 0.11 0.13 0.12 0.12 0.10 0.07 0.05
0.01 0.01 0.01 0.02 0.04 0.05 0.04 0.03 0.02 0.02 0.02 0.03 0.02 0.02 0.04 0.04 0.05 0.05 0.06 0.06 0.05 0.05 0.06 0.07 0.07 0.07 0.08 0.08 0.06 0.07 0.06 0.06 0.06 0.05 0.05 0.06 0.08 0.11 0.13 0.13 0.11 0.08 0.07
0.00 0.01 0.02 0.02 0.03 0.03 0.02 0.02 0.02 0.02 0.02 0.02 0.01 0.02 0.03 0.03 0.03 0.05 0.05 0.05 0.04 0.04 0.04 0.05 0.07 0.07 0.07 0.09 0.09 0.08 0.05 0.05 0.05 0.05 0.04 0.03 0.04 0.06 0.10 0.12 0.12 0.12 0.09
0.00 0.01 0.02 0.04 0.04 0.02 0.01 0.02 0.02 0.01 0.01 0.02 0.02 0.02 0.03 0.03 0.03 0.05 0.05 0.05 0.05 0.03 0.03 0.04 0.07 0.07 0.07 0.08 0.10 0.09 0.06 0.06 0.06 0.05 0.05 0.04 0.04 0.04 0.05 0.08 0.11 0.13 0.14
0.01 0.01 0.01 0.03 0.05 0.06 0.03 0.03 0.03 0.01 0.01 0.01 0.02 0.02 0.02 0.03 0.03 0.04 0.05 0.05 0.05 0.05 0.04 0.04 0.04 0.06 0.08 0.08 0.08 0.08 0.08 0.09 0.09 0.08 0.07 0.06 0.06 0.05 0.04 0.05 0.07 0.09 0.11
0.01 0.01 0.01 0.02 0.03 0.06 0.05 0.03 0.03 0.01 0.01 0.01 0.02 0.02 0.02 0.03 0.03 0.03 0.04 0.04 0.04 0.03 0.03 0.03 0.04 0.06 0.09 0.09 0.08 0.09 0.10 0.10 0.10 0.10 0.09 0.08 0.07 0.07 0.06 0.05 0.05 0.05 0.07
0.01 0.01 0.01 0.02 0.02 0.02 0.02 0.03 0.02 0.02 0.02 0.01 0.01 0.01 0.02 0.03 0.03 0.03 0.04 0.04 0.04 0.04 0.03 0.02 0.02 0.03 0.07 0.10 0.10 0.10 0.11 0.12 0.11 0.12 0.12 0.11 0.09 0.07 0.06 0.06 0.05 0.04 0.05
0.01 0.02 0.02 0.02 0.02 0.02 0.02 0.03 0.04 0.04 0.04 0.03 0.02 0.02 0.02 0.02 0.03 0.02 0.03 0.04 0.04 0.05 0.05 0.03 0.02 0.02 0.04 0.09 0.12 0.12 0.12 0.12 0.12 0.12 0.12 0.13 0.12 0.10 0.08 0.06 0.05 0.05 0.04
0.01 0.01 0.02 0.03 0.03 0.03 0.02 0.03 0.04 0.06 0.05 0.05 0.03 0.03 0.02 0.02 0.03 0.02 0.02 0.02 0.03 0.04 0.04 0.03 0.04 0.03 0.04 0.07 0.10 0.10 0.12 0.12 0.13 0.12 0.12 0.12 0.13 0.11 0.10 0.08 0.07 0.06 0.05
0.00 0.01 0.02 0.02 0.03 0.02 0.02 0.02 0.03 0.03 0.04 0.03 0.03 0.03 0.03 0.02 0.02 0.03 0.02 0.02 0.02 0.03 0.03 0.04 0.03 0.03 0.04 0.06 0.07 0.08 0.09 0.11 0.12 0.13 0.14 0.14 0.14 0.14 0.12 0.11 0.11 0.09 0.07
0.00 0.01 0.02 0.01 0.01 0.01 0.01 0.01 0.01 0.02 0.02 0.02 0.02 0.01 0.01 0.01 0.01 0.02 0.03 0.03 0.02 0.02 0.03 0.03 0.03 0.02 0.02 0.05 0.07 0.09 0.10 0.12 0.11 0.10 0.12 0.13 0.13 0.13 0.12 0.10 0.10 0.10 0.09
0.00 0.00 0.01 0.02 0.02 0.02 0.02 0.01 0.01 0.01 0.01 0.01 0.02 0.02 0.01 0.01 0.01 0.01 0.02 0.04 0.04 0.03 0.03 0.03 0.03 0.02 0.02 0.03 0.05 0.08 0.09 0.10 0.10 0.13 0.12 0.10 0.12 0.11 0.10 0.09 0.08 0.08 0.09
0.00 0.00 0.00 0.01 0.01 0.01 0.01 0.01 0.00 0.00 0.00 0.01 0.02 0.03 0.02 0.01 0.02 0.01 0.01 0.01 0.02 0.03 0.03 0.03 0.03 0.03 0.04 0.04 0.05 0.06 0.08 0.09 0.10 0.12 0.12 0.10 0.10 0.10 0.10 0.08 0.08 0.07 0.07
0.00 0.00 0.00 0.00 0.00 0.00 0.00 0.00 0.00 0.00 0.00 0.01 0.01 0.01 0.02 0.02 0.03 0.02 0.02 0.01 0.01 0.02 0.03 0.04 0.04 0.05 0.06 0.06 0.06 0.06 0.06 0.07 0.09 0.10 0.10 0.10 0.09 0.08 0.08 0.09 0.09 0.08 0.08
0.00 0.00 0.00 0.00 0.00 0.00 0.00 0.00 0.00 0.00 0.00 0.01 0.01 0.01 0.01 0.02 0.04 0.03 0.02 0.01 0.01 0.02 0.03 0.03 0.03 0.02 0.03 0.04 0.05 0.05 0.07 0.08 0.09 0.08 0.09 0.10 0.09 0.09 0.07 0.06 0.07 0.08 0.08
MSLP
1013.21 1013.07 1012.88 1012.65 1012.42 1012.21 1012.03 1011.91 1011.84 1011.81 1011.83 1011.86 1011.91 1011.94 1011.97 1011.99 1011.99 1012.00 1012.01 1012.04 1012.10 1012.19 1012.30 1012.45 1012.62 1012.80 1012.99 1013.18 1013.37 1013.56 1013.76 1013.97 1014.21 1014.47 1014.76 1015.07 1015.39 1015.70 1015.99 1016.25 1016.48 1016.68 1016.86
1013.41 1013.24 1013.04 1012.82 1012.60 1012.39 1012.22 1012.08 1011.99 1011.94 1011.91 1011.91 1011.90 1011.90 1011.88 1011.86 1011.83 1011.81 1011.79 1011.80 1011.85 1011.93 1012.06 1012.22 1012.41 1012.63 1012.85 1013.07 1013.28 1013.49 1013.70 1013.92 1014.16 1014.44 1014.74 1015.06 1015.39 1015.72 1016.02 1016.29 1016.53 1016.75 1016.94
1013.59 1013.41 1013.22 1013.02 1012.83 1012.65 1012.49 1012.36 1012.25 1012.16 1012.09 1012.04 1011.99 1011.93 1011.88 1011.81 1011.74 1011.67 1011.62 1011.60 1011.62 1011.68 1011.80 1011.97 1012.18 1012.41 1012.65 1012.90 1013.13 1013.36 1013.58 1013.81 1014.06 1014.34 1014.64 1014.97 1015.32 1015.66 1015.98 1016.28 1016.54 1016.78 1017.01
1013.70 1013.53 1013.36 1013.20 1013.06 1012.92 1012.78 1012.65 1012.53 1012.41 1012.30 1012.20 1012.11 1012.01 1011.92 1011.82 1011.72 1011.61 1011.52 1011.46 1011.44 1011.48 1011.57 1011.73 1011.93 1012.17 1012.43 1012.69 1012.94 1013.18 1013.41 1013.65 1013.90 1014.18 1014.49 1014.83 1015.18 1015.53 1015.88 1016.21 1016.51 1016.79 1017.05
1013.73 1013.56 1013.43 1013.32 1013.23 1013.13 1013.02 1012.89 1012.75 1012.61 1012.47 1012.34 1012.22 1012.11 1012.00 1011.88 1011.76 1011.64 1011.52 1011.42 1011.36 1011.35 1011.41 1011.53 1011.72 1011.95 1012.21 1012.48 1012.74 1012.99 1013.23 1013.47 1013.72 1013.99 1014.30 1014.64 1015.00 1015.37 1015.75 1016.11 1016.46 1016.78 1017.08
1013.68 1013.52 1013.42 1013.35 1013.29 1013.23 1013.13 1013.01 1012.87 1012.71 1012.55 1012.41 1012.29 1012.18 1012.08 1011.98 1011.87 1011.74 1011.60 1011.48 1011.37 1011.32 1011.33 1011.41 1011.56 1011.78 1012.02 1012.28 1012.55 1012.80 1013.04 1013.28 1013.53 1013.80 1014.10 1014.44 1014.81 1015.20 1015.60 1016.00 1016.38 1016.74 1017.08
1013.57 1013.42 1013.33 1013.29 1013.26 1013.21 1013.13 1013.00 1012.85 1012.68 1012.52 1012.39 1012.29 1012.22 1012.16 1012.10 1012.02 1011.91 1011.78 1011.63 1011.49 1011.39 1011.34 1011.37 1011.48 1011.65 1011.88 1012.13 1012.38 1012.64 1012.88 1013.12 1013.36 1013.63 1013.92 1014.26 1014.63 1015.03 1015.44 1015.86 1016.27 1016.66 1017.03
1013.49 1013.32 1013.23 1013.19 1013.16 1013.12 1013.03 1012.89 1012.73 1012.56 1012.41 1012.30 1012.24 1012.22 1012.22 1012.23 1012.20 1012.12 1012.00 1011.84 1011.67 1011.52 1011.42 1011.40 1011.45 1011.58 1011.77 1012.00 1012.24 1012.49 1012.73 1012.96 1013.21 1013.47 1013.76 1014.09 1014.46 1014.86 1015.28 1015.70 1016.12 1016.52 1016.90
1013.49 1013.31 1013.20 1013.14 1013.09 1013.02 1012.91 1012.75 1012.57 1012.40 1012.26 1012.18 1012.16 1012.21 1012.28 1012.34 1012.37 1012.33 1012.22 1012.06 1011.86 1011.67 1011.52 1011.43 1011.43 1011.51 1011.66 1011.86 1012.09 1012.33 1012.56 1012.80 1013.05 1013.31 1013.60 1013.92 1014.28 1014.67 1015.08 1015.49 1015.91 1016.30 1016.68
1013.63 1013.42 1013.28 1013.19 1013.11 1013.00 1012.84 1012.65 1012.45 1012.27 1012.14 1012.08 1012.10 1012.19 1012.31 1012.43 1012.50 1012.49 1012.39 1012.22 1012.00 1011.77 1011.57 1011.43 1011.37 1011.41 1011.52 1011.69 1011.89 1012.12 1012.36 1012.60 1012.84 1013.11 1013.39 1013.71 1014.06 1014.44 1014.82 1015.22 1015.61 1015.98 1016.34
1013.90 1013.67 1013.51 1013.38 1013.25 1013.09 1012.89 1012.66 1012.43 1012.23 1012.09 1012.04 1012.07 1012.18 1012.33 1012.47 1012.56 1012.56 1012.47 1012.29 1012.04 1011.78 1011.54 1011.36 1011.25 1011.24 1011.31 1011.45 1011.63 1011.84 1012.07 1012.31 1012.56 1012.83 1013.12 1013.44 1013.78 1014.14 1014.50 1014.87 1015.22 1015.57 1015.90
1014.26 1014.03 1013.84 1013.68 1013.51 1013.31 1013.07 1012.80 1012.53 1012.30 1012.14 1012.07 1012.09 1012.19 1012.32 1012.46 1012.53 1012.53 1012.42 1012.23 1011.97 1011.69 1011.42 1011.20 1011.06 1011.00 1011.04 1011.14 1011.29 1011.48 1011.69 1011.93 1012.18 1012.46 1012.76 1013.08 1013.41 1013.76 1014.11 1014.44 1014.77 1015.08 1015.38
1014.64 1014.42 1014.23 1014.05 1013.85 1013.62 1013.34 1013.04 1012.74 1012.47 1012.28 1012.17 1012.15 1012.21 1012.30 1012.39 1012.44 1012.40 1012.28 1012.07 1011.80 1011.51 1011.22 1010.99 1010.82 1010.74 1010.73 1010.79 1010.90 1011.06 1011.25 1011.47 1011.71 1011.99 1012.29 1012.62 1012.96 1013.31 1013.64 1013.96 1014.25 1014.53 1014.81
1014.96 1014.76 1014.59 1014.41 1014.20 1013.95 1013.66 1013.33 1013.01 1012.71 1012.47 1012.32 1012.25 1012.24 1012.27 1012.30 1012.30 1012.23 1012.08 1011.86 1011.59 1011.30 1011.03 1010.79 1010.61 1010.50 1010.45 1010.46 1010.52 1010.63 1010.78 1010.96 1011.18 1011.45 1011.76 1012.09 1012.44 1012.79 1013.12 1013.43 1013.71 1013.97 1014.23
1015.15 1014.99 1014.84 1014.68 1014.49 1014.24 1013.95 1013.63 1013.29 1012.97 1012.70 1012.50 1012.37 1012.29 1012.25 1012.22 1012.16 1012.05 1011.89 1011.67 1011.42 1011.15 1010.89 1010.66 1010.48 1010.35 1010.26 1010.22 1010.21 1010.25 1010.33 1010.46 1010.65 1010.89 1011.18 1011.51 1011.86 1012.21 1012.55 1012.86 1013.14 1013.40 1013.65
1015.20 1015.08 1014.97 1014.84 1014.67 1014.46 1014.19 1013.88 1013.56 1013.23 1012.94 1012.70 1012.51 1012.38 1012.27 1012.17 1012.07 1011.93 1011.76 1011.56 1011.34 1011.10 1010.88 1010.67 1010.49 1010.34 1010.21 1010.11 1010.03 1009.98 1009.98 1010.03 1010.15 1010.34 1010.60 1010.91 1011.25 1011.60 1011.95 1012.26 1012.55 1012.82 1013.08
1015.12 1015.05 1014.97 1014.88 1014.76 1014.58 1014.35 1014.08 1013.78 1013.47 1013.18 1012.91 1012.69 1012.51 1012.35 1012.21 1012.07 1011.92 1011.76 1011.58 1011.39 1011.20 1011.01 1010.84 1010.66 1010.49 1010.32 1010.15 1009.99 1009.85 1009.76 1009.72 1009.75 1009.87 1010.06 1010.33 1010.64 1010.98 1011.32 1011.64 1011.93 1012.21 1012.48
1014.98 1014.94 1014.91 1014.85 1014.77 1014.64 1014.46 1014.23 1013.96 1013.68 1013.40 1013.14 1012.90 1012.69 1012.51 1012.34 1012.18 1012.03 1011.87 1011.72 1011.57 1011.42 1011.27 1011.12 1010.95 1010.77 1010.56 1010.33 1010.10 1009.87 1009.67 1009.53 1009.46 1009.49 1009.60 1009.80 1010.06 1010.36 1010.67 1010.98 1011.27 1011.56 1011.84
1014.84 1014.83 1014.82 1014.80 1014.75 1014.66 1014.52 1014.34 1014.12 1013.88 1013.62 1013.37 1013.14 1012.92 1012.72 1012.54 1012.37 1012.22 1012.08 1011.94 1011.82 1011.70 1011.58 1011.45 1011.29 1011.10 1010.87 1010.60 1010.30 1009.99 1009.71 1009.47 1009.30 1009.22 1009.24 1009.35 1009.53 1009.76 1010.02 1010.29 1010.57 1010.85 1011.14
1014.75 1014.76 1014.76 1014.76 1014.74 1014.67 1014.57 1014.42 1014.24 1014.03 1013.81 1013.59 1013.37 1013.16 1012.96 1012.78 1012.61 1012.45 1012.31 1012.19 1012.08 1011.98 1011.87 1011.75 1011.60 1011.41 1011.16 1010.87 1010.53 1010.17 1009.82 1009.51 1009.25 1009.08 1008.99 1008.99 1009.07 1009.22 1009.40 1009.62 1009.86 1010.11 1010.39
1014.72 1014.73 1014.74 1014.74 1014.72 1014.67 1014.58 1014.45 1014.30 1014.12 1013.94 1013.74 1013.55 1013.36 1013.18 1013.00 1012.83 1012.67 1012.52 1012.39 1012.27 1012.16 1012.06 1011.94 1011.80 1011.61 1011.37 1011.08 1010.73 1010.36 1009.98 1009.61 1009.29 1009.04 1008.85 1008.75 1008.72 1008.76 1008.85 1008.98 1009.16 1009.37 1009.62
1014.71 1014.72 1014.72 1014.71 1014.68 1014.61 1014.52 1014.40 1014.26 1014.11 1013.96 1013.80 1013.64 1013.48 1013.32 1013.15 1012.98 1012.81 1012.64 1012.49 1012.35 1012.22 1012.10 1011.97 1011.83 1011.66 1011.44 1011.17 1010.85 1010.50 1010.12 1009.75 1009.39 1009.07 1008.81 1008.61 1008.47 1008.40 1008.38 1008.42 1008.52 1008.67 1008.88
1014.68 1014.68 1014.66 1014.62 1014.56 1014.46 1014.35 1014.22 1014.09 1013.96 1013.83 1013.71 1013.59 1013.47 1013.34 1013.19 1013.02 1012.84 1012.65 1012.46 1012.29 1012.12 1011.97 1011.84 1011.69 1011.53 1011.35 1011.12 1010.86 1010.55 1010.21 1009.85 1009.49 1009.14 1008.82 1008.54 1008.31 1008.13 1008.01 1007.95 1007.96 1008.04 1008.19
1014.57 1014.55 1014.50 1014.42 1014.31 1014.18 1014.03 1013.88 1013.74 1013.62 1013.53 1013.45 1013.38 1013.30 1013.21 1013.09 1012.93 1012.75 1012.54 1012.32 1012.10 1011.90 1011.72 1011.55 1011.41 1011.26 1011.11 1010.93 1010.73 1010.48 1010.20 1009.88 1009.54 1009.19 1008.84 1008.50 1008.19 1007.92 1007.70 1007.55 1007.47 1007.48 1007.56
1014.35 1014.31 1014.23 1014.10 1013.94 1013.75 1013.56 1013.39 1013.24 1013.13 1013.07 1013.03 1013.01 1012.99 1012.94 1012.86 1012.73 1012.55 1012.34 1012.09 1011.84 1011.60 1011.38 1011.18 1011.02 1010.89 1010.76 1010.63 1010.47 1010.29 1010.06 1009.79 1009.48 1009.14 1008.77 1008.40 1008.04 1007.70 1007.41 1007.18 1007.02 1006.96 1006.98
1014.03 1013.98 1013.86 1013.69 1013.47 1013.23 1013.00 1012.80 1012.64 1012.54 1012.50 1012.50 1012.54 1012.57 1012.58 1012.55 1012.45 1012.30 1012.08 1011.82 1011.54 1011.27 1011.01 1010.79 1010.60 1010.46 1010.34 1010.23 1010.11 1009.96 1009.78 1009.55 1009.26 1008.93 1008.56 1008.17 1007.77 1007.39 1007.04 1006.76 1006.54 1006.42 1006.38
Thickness
5697 5699 5701 5704 5707 5710 5714 5717 5720 5723 5726 5729 5732 5734 5735 5738 5740 5742 5745 5747 5749 5751 5752 5752 5752 5752 5751 5751 5751 5750 5750 5750 5750 5750 5750 5750 5751 5751 5750 5750 5750 5749 5749
5691 5692 5694 5696 5699 5703 5707 5710 5714 5718 5721 5724 5727 5730 5732 5735 5737 5740 5742 5745 5747 5749 5751 5751 5751 5751 5750 5750 5750 5749 5749 5749 5749 5749 5749 5749 5749 5749 5749 5748 5748 5748 5747
5685 5686 5687 5689 5692 5696 5700 5704 5708 5712 5715 5719 5721 5725 5728 5731 5734 5737 5739 5742 5745 5747 5749 5749 5749 5749 5749 5749 5749 5748 5748 5747 5747 5747 5747 5747 5747 5747 5747 5747 5746 5746 5746
5679 5680 5681 5683 5686 5689 5692 5696 5700 5704 5708 5711 5714 5719 5723 5727 5730 5733 5736 5739 5741 5744 5746 5746 5747 5747 5748 5748 5747 5747 5747 5746 5746 5746 5746 5746 5746 5745 5745 5744 5744 5744 5744
5674 5674 5675 5677 5680 5682 5685 5689 5693 5696 5700 5704 5708 5712 5717 5721 5725 5729 5732 5735 5738 5740 5742 5743 5744 5745 5745 5746 5746 5746 5746 5745 5745 5745 5744 5744 5744 5743 5743 5742 5742 5742 5742
5670 5670 5671 5672 5674 5675 5677 5681 5685 5689 5693 5697 5702 5706 5710 5715 5720 5723 5727 5730 5733 5735 5737 5739 5740 5741 5742 5743 5744 5744 5744 5744 5744 5744 5743 5743 5742 5741 5741 5741 5740 5740 5739
5666 5666 5666 5667 5668 5669 5671 5674 5677 5681 5685 5690 5693 5696 5702 5708 5713 5717 5721 5725 5728 5731 5732 5734 5736 5738 5739 5740 5741 5742 5742 5742 5743 5742 5742 5741 5740 5740 5739 5739 5739 5738 5737
5663 5663 5662 5662 5663 5664 5665 5668 5670 5673 5677 5682 5684 5686 5688 5695 5704 5711 5714 5718 5722 5725 5727 5730 5732 5734 5735 5737 5738 5740 5740 5740 5740 5740 5740 5740 5739 5739 5738 5737 5737 5736 5735
5660 5659 5659 5659 5659 5660 5661 5663 5665 5667 5669 5675 5679 5681 5681 5683 5691 5700 5706 5711 5715 5718 5721 5724 5727 5729 5732 5733 5735 5736 5737 5738 5738 5738 5738 5738 5738 5737 5736 5736 5735 5734 5733
5658 5657 5656 5656 5656 5656 5657 5659 5661 5662 5665 5667 5672 5677 5680 5682 5683 5688 5696 5703 5708 5711 5715 5719 5722 5725 5727 5729 5731 5733 5734 5735 5736 5736 5736 5736 5736 5735 5735 5734 5733 5732 5732
5656 5655 5654 5653 5653 5653 5654 5655 5657 5659 5661 5663 5666 5670 5673 5677 5681 5681 5685 5691 5698 5704 5709 5713 5717 5720 5723 5725 5727 5729 5731 5732 5733 5733 5733 5734 5733 5733 5733 5732 5731 5730 5729
5654 5653 5652 5651 5651 5651 5652 5653 5654 5656 5658 5660 5662 5665 5668 5671 5673 5677 5679 5682 5688 5695 5702 5708 5712 5715 5718 5720 5723 5725 5727 5728 5729 5730 5730 5731 5731 5731 5731 5730 5729 5728 5727
5652 5651 5651 5650 5649 5649 5650 5651 5652 5653 5655 5657 5659 5661 5665 5668 5671 5673 5675 5677 5680 5687 5695 5701 5706 5710 5713 5715 5718 5720 5722 5724 5725 5726 5727 5727 5727 5728 5728 5727 5726 5726 5725
5652 5651 5650 5650 5649 5649 5649 5650 5650 5651 5652 5654 5656 5658 5661 5664 5667 5670 5672 5672 5674 5678 5685 5692 5699 5704 5707 5710 5713 5715 5717 5719 5720 5722 5723 5723 5724 5724 5724 5724 5724 5723 5722
5653 5652 5651 5650 5649 5649 5649 5649 5649 5649 5650 5651 5653 5655 5657 5660 5663 5666 5668 5670 5670 5671 5676 5684 5691 5697 5701 5704 5707 5710 5712 5714 5716 5717 5718 5719 5719 5720 5720 5720 5720 5720 5719
5654 5652 5651 5650 5649 5649 5648 5648 5647 5648 5648 5649 5650 5652 5654 5656 5659 5661 5663 5666 5668 5669 5671 5678 5684 5690 5695 5698 5701 5704 5706 5709 5710 5712 5713 5714 5715 5716 5716 5716 5716 5716 5715
5655 5653 5651 5650 5649 5649 5648 5647 5647 5647 5647 5647 5648 5650 5651 5653 5655 5657 5659 5661 5663 5666 5667 5672 5677 5682 5687 5690 5694 5697 5700 5702 5704 5706 5708 5709 5710 5711 5711 5712 5712 5711 5711
5656 5654 5652 5651 5650 5649 5648 5647 5647 5647 5646 5646 5647 5648 5649 5650 5651 5653 5655 5657 5659 5662 5663 5665 5670 5674 5679 5683 5687 5690 5694 5696 5699 5701 5703 5704 5705 5706 5706 5707 5707 5707 5706
5656 5654 5653 5651 5650 5649 5648 5647 5647 5646 5646 5646 5646 5646 5646 5647 5648 5650 5651 5653 5655 5658 5659 5660 5664 5668 5672 5677 5680 5683 5686 5689 5692 5694 5696 5698 5699 5700 5701 5702 5702 5702 5702
5657 5655 5653 5652 5650 5650 5649 5648 5647 5646 5645 5645 5645 5645 5645 5646 5646 5647 5649 5650 5651 5653 5654 5655 5658 5661 5665 5669 5672 5675 5677 5680 5684 5687 5689 5691 5693 5694 5695 5696 5696 5697 5697
5658 5655 5653 5652 5651 5651 5650 5649 5647 5646 5644 5643 5644 5644 5645 5645 5646 5647 5648 5648 5649 5649 5650 5651 5653 5656 5658 5661 5664 5667 5669 5672 5676 5679 5681 5684 5686 5688 5689 5690 5690 5691 5691
5658 5655 5653 5652 5651 5651 5651 5650 5649 5646 5645 5643 5643 5643 5644 5644 5645 5646 5647 5647 5648 5647 5648 5648 5649 5651 5654 5657 5659 5661 5662 5664 5667 5673 5674 5676 5679 5681 5683 5683 5685 5685 5686
5657 5655 5653 5651 5650 5650 5651 5651 5649 5647 5645 5643 5642 5641 5642 5643 5643 5643 5644 5645 5645 5647 5648 5648 5648 5649 5651 5653 5654 5655 5657 5659 5662 5666 5666 5668 5672 5674 5676 5678 5679 5679 5680
5656 5654 5653 5651 5650 5650 5651 5650 5649 5646 5644 5642 5641 5640 5639 5640 5641 5641 5641 5642 5642 5644 5645 5646 5647 5649 5650 5651 5652 5653 5653 5654 5656 5658 5660 5661 5664 5667 5669 5671 5673 5673 5674
5656 5654 5652 5651 5649 5649 5650 5649 5648 5645 5643 5641 5640 5640 5639 5639 5640 5640 5640 5640 5640 5641 5643 5645 5646 5647 5648 5649 5649 5648 5648 5648 5649 5652 5654 5656 5658 5659 5662 5665 5666 5667 5668
5656 5654 5652 5650 5649 5648 5649 5649 5647 5644 5641 5640 5639 5639 5639 5638 5639 5638 5637 5637 5637 5638 5640 5641 5643 5644 5645 5646 5646 5646 5646 5645 5645 5646 5649 5650 5651 5651 5653 5657 5658 5660 5660